Regional Weather Roundup
Issued by NWS Upton, NY

Current Version | Previous Version | Graphics & Text | Print | Product List | Glossary Off
Versions: 1 2 3 4 5 6 7 8 9 10 11 12 13 14 15 16 17 18 19 20 21 22 23 24 25 26 27 28 29 30 31 32 33 34 35 36 37 38 39 40 41 42 43 44 45 46 47 48 49 50

316
ASUS41 KOKX 302004
RWROKX

REGIONAL WEATHER ROUNDUP
NATIONAL WEATHER SERVICE NEW YORK NY
400 PM EDT MON MAY 30 2016

NOTE: "FAIR" INDICATES FEW OR NO CLOUDS BELOW 12,000 FEET WITH NO
SIGNIFICANT WEATHER AND/OR OBSTRUCTIONS TO VISIBILITY.

NYZ071-072-176-178-NJZ106-104-302100-
NEW YORK CITY METRO AREA


CITY           SKY/WX    TMP DP  RH WIND       PRES   REMARKS
CENTRAL PARK   CLOUDY    77  68  73 CALM      29.96F
LAGUARDIA APRT CLOUDY    78  73  84 S13       29.92F
KENNEDY INTL   CLOUDY    70  67  90 S9        29.95F
NEWARK/LIBERTY CLOUDY    79  68  69 S7        29.92F
BRNX BOT. GARD   N/A     75  68  78 S13       29.95S
TETERBORO      CLOUDY    81  66  60 S9        29.91F
$$

NYZ177-179-078>081-302100-
LONG ISLAND NEW YORK

CITY           SKY/WX    TMP DP  RH WIND       PRES   REMARKS
FARMINGDALE    CLOUDY    71  67  87 SW9       29.95F
ISLIP          CLOUDY    70  66  87 S9        29.95F FOG
SHIRLEY        CLOUDY    68  66  93 S10       29.97F
RIVERHEAD        N/A     72  68  88 SE2       29.95F
WESTHAMPTON    FOG       64  63  96 S9        29.99S VSB 1/2
EAST HAMPTON   FOG       63  63  98 SW8       29.97S VSB 1/4
MONTAUK POINT    N/A     65  65 100 SW8       29.98S
$$

NYZ052-065-067-302100-
HUDSON VALLEY

CITY           SKY/WX    TMP DP  RH WIND       PRES   REMARKS
WHITE PLAINS   CLOUDY    78  69  73 S9        29.93F
NEWBURGH       MOSUNNY   81  66  61 VRB6      29.93F
MONTGOMERY     MOSUNNY   83  66  56 SW13      29.91F
POUGHKEEPSIE   MOSUNNY   84  65  52 VRB7      29.89F
ALBANY         PTSUNNY   84  65  52 S12       29.86F
$$

NJZ001-105-106-008-010-013-015-019>022-104-302100-
NEW JERSEY

CITY           SKY/WX    TMP DP  RH WIND       PRES   REMARKS
NEWARK/LIBERTY CLOUDY    79  68  69 S7        29.92F
TETERBORO      CLOUDY    81  66  60 S9        29.91F
CALDWELL       PTSUNNY   81  65  58 SW5       29.93F
MORRISTOWN     CLOUDY    81  66  61 SW9       29.94F
SOMERVILLE     CLOUDY    81  69  67 S3        29.91F
SUSSEX         MOSUNNY   83  65  54 SW8       29.92F
ANDOVER          N/A     82  63  52 SW8       29.94F
TRENTON        CLOUDY    78  67  68 SW7       29.94F
MILLVILLE      LGT RAIN  71  69  93 S6        29.98S
ATLANTIC CITY  LGT RAIN  71  69  93 S9        29.98F FOG
WRIGHTSTOWN    PTSUNNY   77  71  84 SW6       29.93S
TOMS RIVER     CLOUDY    73  70  88 S8        29.96F
BELMAR         CLOUDY    75  72  90 S7        29.96F
$$

PAZ047>061-062-071-302100-
EASTERN PENNSYLVANIA

CITY           SKY/WX    TMP DP  RH WIND       PRES   REMARKS
PHILADELPHIA   CLOUDY    78  66  66 S9        29.95F
ALLENTOWN      MOSUNNY   84  63  49 SW5       29.93F
SCRANTON       MOSUNNY   85  58  39 SW8G17    29.91F
$$

CTZ002-004>006-009-010-012-RIZ004-006-007-MAZ004-011-015-302100-
SOUTHERN NEW ENGLAND
 IN CT

CITY           SKY/WX    TMP DP  RH WIND       PRES   REMARKS
BRADLEY INTL   PTSUNNY   79  66  64 S8        29.90F
HARTFORD       MOSUNNY   83  68  60 S9        29.91F
DANBURY        CLOUDY    78  65  63 SW6       29.94F
WTRBRY/OXFORD  PTSUNNY   77  66  69 S8        29.96F
BRIDGEPORT     CLOUDY    74  68  81 S8        29.94F
MERIDEN        CLOUDY    78  67  68 S8        29.93S
NEW HAVEN      PTSUNNY   71  67  87 S9        29.95S
CHESTER        MOCLDY    72  70  94 S10       29.96F
GROTON         FOG       65  65 100 SW8       29.96S VSB 1/2
WILLIMANTIC    CLOUDY    79  69  71 S9        29.93S

 IN RI

CITY           SKY/WX    TMP DP  RH WIND       PRES   REMARKS
PROVIDENCE     CLOUDY    73  68  84 SW10      29.94F
BLOCK ISLAND   LGT RAIN  63  62  97 SW17G26   29.97F VSB 1/4
WESTERLY       FOG       66  63  90 SW7       29.97S VSB 1/2

 IN MA

CITY           SKY/WX    TMP DP  RH WIND       PRES   REMARKS
BOSTON         PTSUNNY   75  66  73 SW12      29.91F
WORCESTER      MOSUNNY   75  64  68 SW10      29.94F
WESTFIELD      CLOUDY    77  67  71 SE10      29.90F
PROVINCETOWN   CLOUDY    64  63  96 SW14      29.94F
NANTUCKET      LGT RAIN  63  61  93 SW15      29.97F VSB 1/2
$$

ANZ330-335-338-340-345-350-353-355-302100-
COASTAL MARINE OBSERVATIONS


STATION/POSITION TIME  SKY/WX   TEMP    WIND        PRES    VSBY  WAVE
                                AIR SEA DIR/SP/G                  HT/PER
                 (UTC)          (F)     (DEG/KT/KT) (MB)    (MI)  (FT/S)
NY HARB ENTRANCE 1850            62 58  190/ 14/ 14 1014.1          3/ 7
20S FIRE ISLAND  1850            62 61  200/ 14/ 16 1014.6          3/ 7
GREAT SOUTH BAY  1900            65 71  220/ 12/ 14   N/A
23 SSW MONTAUK P 1950            61 59  210/ 17/ 19 1014.2          3/ 7
15 E BARNEGAT LI 1922               61                N/A           3/ 7
HUDSON CANYON    1850            64 59              1016.2          4/ 6
KINGS POINT      1900            73 60              1013.8
EXECUTION ROCKS  NOT AVBL
CENTRAL LI SOUND NOT AVBL
EASTERN LI SOUND 1900            62 57  230/  6/  8   N/A
ROBBINS REEF     1906            71     180/ 12/ 13 1013.3
$$


>>>>>>>>>>>>>>>>>>>>>>>>>>>> KEY <<<<<<<<<<<<<<<<<<<<<<<<<<<
>                                                          <
>     SKY/WX - SKY CONDITION/PRESENT WEATHER               <
>     TMP    - TEMPERATURE IN FAHRENHEIT                   <
>     DP     - DEWPOINT IN FAHRENHEIT                      <
>     RH     - RELATIVE HUMIDITY IN PERCENT                <
>     WIND   - DIRECTION AND SPEED IN MPH                  <
>     PRES   - MEAN SEA LEVEL PRESSURE IN INCHES OF HG     <
>     WCI    - WIND CHILL INDEX                            <
>     VSB    - VISIBILITY IN MILES                         <
>     HX     - HEAT INDEX                                  <
>     TC     - TEMPERATURE IN CELSIUS                      <
>     VRB    - VARIABLE WIND DIRECTION                     <
>                                                          <
>>>>>>>>>>>>>>>>>>>>>>>>>>>> KEY <<<<<<<<<<<<<<<<<<<<<<<<<<<






USA.gov is the U.S. government's official web portal to all federal, state and local government web resources and services.